Gainesville, TX

10:55 PM CST on November 19, 2017 (GMT -0600)
Gainesville Municipal

Weather History for KGLE - April, 2014

Change the Weather History Date:

Sunday, April 6, 2014

  Actual Average (KDTO) Record (KDTO)
Temperature  
Mean Temperature 46 °F -  
Max Temperature 49 °F 70 °F 86 °F (2011)
Min Temperature 44 °F 47 °F 36 °F (2009)
Degree Days  
Heating Degree Days 18    
Moisture  
Dew Point 44 °F    
Average Humidity 88    
Maximum Humidity 97    
Minimum Humidity 69    
Precipitation  
Precipitation 0.45 in - - ()
Sea Level Pressure  
Sea Level Pressure 29.91 in    
Wind  
Wind Speed 8 mph (NE)    
Max Wind Speed 15 mph    
Max Gust Speed 17 mph    
Visibility 9 miles    
Events Rain    
Averages and records for this station are not official NWS values.
T = Trace of Precipitation, MM = Missing Value Source: NWS Daily Summary

Daily Weather History Graph

Daily Weather History Graph

Search for Another Location

Airport or City:

Trip Planner

Search our weather history database for the weather conditions in past years. The results will help you decide how hot, cold, wet, or windy it might be!

Date:

Astronomy

Apr. 06, 2014 Rise Set
Actual Time 7:09 AM CDT 7:53 PM CDT
Civil Twilight 6:44 AM CDT 8:18 PM CDT
Nautical Twilight 6:14 AM CDT 8:48 PM CDT
Astronomical Twilight 5:44 AM CDT 9:18 PM CDT
Moon 12:20 PM CDT (4/6) 1:40 AM CDT (4/6)
Length of Visible Light 13h 33m
Length of Day
12h 43m
Waxing Crescent, 44% of the Moon is Illuminated
Apr 6
Waxing Crescent
Apr 7
First Quarter
Apr 15
Full
Apr 22
Last Quarter
Apr 29
New

Hourly Weather History & Observations

Time (CDT) Temp. Windchill Dew Point Humidity Pressure Visibility Wind Dir Wind Speed Gust Speed Precip Events Conditions
12:15 AM 48.6 °F - 38.8 °F 69% 30.00 in 10.0 mi ENE 12.7 mph 17.3 mph N/A   Overcast
12:35 AM 48.2 °F - 38.7 °F 70% 30.01 in 10.0 mi ENE 10.4 mph - N/A   Overcast
12:55 AM 48.2 °F - 38.7 °F 70% 30.01 in 10.0 mi ENE 9.2 mph 16.1 mph N/A   Overcast
1:15 AM 48.4 °F - 38.5 °F 69% 30.01 in 10.0 mi ENE 9.2 mph 16.1 mph N/A   Overcast
1:35 AM 48.2 °F - 38.7 °F 70% 30.00 in 10.0 mi ENE 12.7 mph - N/A   Overcast
1:55 AM 48.2 °F - 38.7 °F 70% 30.00 in 10.0 mi ENE 11.5 mph - N/A   Overcast
2:15 AM 48.2 °F - 38.7 °F 70% 29.99 in 10.0 mi ENE 11.5 mph - N/A   Overcast
2:35 AM 48.2 °F - 39.2 °F 71% 29.99 in 10.0 mi ENE 10.4 mph - N/A   Overcast
2:55 AM 48.2 °F - 39.0 °F 71% 29.98 in 10.0 mi ENE 9.2 mph - N/A   Overcast
3:15 AM 48.2 °F - 39.2 °F 71% 29.98 in 10.0 mi East 15.0 mph - N/A   Overcast
3:35 AM 48.2 °F - 39.2 °F 71% 29.98 in 10.0 mi East 10.4 mph - N/A   Overcast
3:55 AM 47.3 °F - 40.6 °F 78% 29.96 in 10.0 mi ENE 9.2 mph - N/A Rain Light Rain
4:15 AM 47.3 °F - 40.3 °F 77% 29.97 in 10.0 mi ENE 6.9 mph - N/A   Overcast
4:35 AM 47.3 °F - 41.0 °F 79% 30.01 in 10.0 mi SE 4.6 mph - N/A Rain Light Rain
4:55 AM 46.6 °F - 41.0 °F 81% 29.97 in 10.0 mi NE 8.1 mph - 0.02 in Rain Light Rain
5:15 AM 46.8 °F - 41.2 °F 81% 29.98 in 10.0 mi ENE 6.9 mph - N/A   Overcast
5:35 AM 46.6 °F - 40.8 °F 80% 29.97 in 10.0 mi ENE 9.2 mph - N/A Rain Light Rain
5:55 AM 46.4 °F 41.1 °F 41.4 °F 83% 29.94 in 7.0 mi ENE 11.5 mph - 0.01 in Rain Rain
6:15 AM 45.5 °F 41.8 °F 41.9 °F 87% 29.95 in 10.0 mi NNE 6.9 mph - 0.01 in Rain Light Rain
6:35 AM 45.5 °F 41.8 °F 41.9 °F 87% 29.96 in 10.0 mi NE 6.9 mph - 0.02 in Rain Light Rain
6:55 AM 45.1 °F 40.3 °F 42.3 °F 90% 29.95 in 10.0 mi East 9.2 mph - 0.03 in Rain Light Rain
7:15 AM 45.5 °F 41.8 °F 42.3 °F 88% 29.94 in 10.0 mi NE 6.9 mph - N/A   Light Drizzle
7:35 AM 45.1 °F 42.0 °F 42.3 °F 90% 29.95 in 10.0 mi NE 5.8 mph - 0.02 in Rain Light Rain
7:55 AM 45.1 °F 42.8 °F 42.6 °F 91% 29.95 in 10.0 mi NNW 4.6 mph - 0.02 in   Overcast
8:15 AM 45.0 °F 41.2 °F 42.8 °F 92% 29.94 in 10.0 mi NE 6.9 mph - N/A Rain Light Rain
8:35 AM 45.1 °F 43.7 °F 43.0 °F 92% 29.97 in 7.0 mi ESE 3.5 mph - 0.01 in   Drizzle
8:55 AM 45.1 °F 42.8 °F 42.8 °F 91% 29.95 in 7.0 mi NNE 4.6 mph - 0.02 in Rain Rain
9:15 AM 45.3 °F 42.3 °F 42.8 °F 91% 29.93 in 10.0 mi NNE 5.8 mph - N/A Rain Light Rain
9:35 AM 45.1 °F 42.8 °F 42.6 °F 91% 29.93 in 10.0 mi NE 4.6 mph - N/A Rain Light Rain
9:55 AM 45.0 °F 41.2 °F 43.0 °F 93% 29.90 in 7.0 mi ENE 6.9 mph - N/A   Light Drizzle
10:15 AM 44.6 °F 42.2 °F 42.8 °F 93% 29.94 in 5.0 mi ESE 4.6 mph - 0.01 in Rain Rain
10:35 AM 44.6 °F 42.2 °F 43.3 °F 95% 29.92 in 4.0 mi East 4.6 mph - 0.05 in Rain Light Rain
10:55 AM 45.1 °F - 44.1 °F 96% 29.94 in 4.0 mi Calm Calm - 0.07 in Rain Light Rain
11:15 AM 45.1 °F 42.8 °F 43.9 °F 95% 29.94 in 2.0 mi East 4.6 mph - 0.06 in Rain Heavy Rain
11:35 AM 45.0 °F 42.6 °F 43.9 °F 96% 29.95 in 2.5 mi SE 4.6 mph - 0.12 in   Overcast
11:55 AM 45.5 °F 42.5 °F 44.8 °F 97% 29.93 in 3.0 mi ESE 5.8 mph - 0.16 in Rain Rain
12:15 PM 46.6 °F - 45.9 °F 97% 29.89 in 4.0 mi East 8.1 mph - 0.03 in Rain Light Rain
12:35 PM 47.5 °F - 45.7 °F 93% 29.90 in 7.0 mi East 5.8 mph - 0.03 in Rain Light Rain
12:55 PM 48.6 °F - 46.9 °F 94% 29.88 in 10.0 mi East 5.8 mph - 0.04 in Rain Light Rain
1:15 PM 49.3 °F - 47.7 °F 94% 29.87 in 7.0 mi East 9.2 mph - N/A   Overcast
1:35 PM 49.1 °F - 47.3 °F 93% 29.89 in 7.0 mi East 6.9 mph - N/A   Light Drizzle
1:55 PM 49.1 °F - 47.3 °F 93% 29.88 in 10.0 mi East 4.6 mph - N/A   Overcast
2:15 PM 49.3 °F - 47.1 °F 92% 29.87 in 10.0 mi NE 3.5 mph - N/A   Overcast
2:35 PM 49.5 °F - 46.8 °F 90% 29.87 in 10.0 mi ENE 3.5 mph - N/A   Overcast
2:55 PM 49.3 °F - 46.6 °F 90% 29.89 in 10.0 mi Calm Calm - N/A Rain Light Rain
3:15 PM 49.5 °F - 47.3 °F 92% 29.88 in 10.0 mi NW 9.2 mph - 0.01 in Rain Rain
3:35 PM 49.1 °F - 47.3 °F 93% 29.88 in 10.0 mi NW 6.9 mph - 0.02 in Rain Rain
3:55 PM 49.3 °F - 47.8 °F 95% 29.86 in 5.0 mi North 9.2 mph - 0.04 in Rain Rain
4:15 PM 49.6 °F - 48.0 °F 94% 29.85 in 10.0 mi North 10.4 mph - N/A   Light Drizzle
4:35 PM 49.3 °F - 47.5 °F 94% 29.86 in 10.0 mi North 9.2 mph - N/A   Overcast
4:55 PM 49.3 °F - 47.8 °F 95% 29.84 in 10.0 mi North 10.4 mph - N/A   Light Drizzle
5:15 PM 49.1 °F - 47.3 °F 93% 29.85 in 10.0 mi NNW 8.1 mph - N/A Rain Light Rain
5:35 PM 49.1 °F - 47.8 °F 95% 29.85 in 7.0 mi NNW 10.4 mph - 0.01 in Rain Rain
5:55 PM 49.1 °F - 47.7 °F 95% 29.85 in 7.0 mi North 8.1 mph - 0.03 in Rain Light Rain
6:15 PM 49.1 °F - 47.7 °F 95% 29.83 in 10.0 mi North 9.2 mph - N/A   Drizzle
6:35 PM 48.6 °F - 47.3 °F 95% 29.82 in 10.0 mi NNE 6.9 mph - 0.01 in   Light Drizzle
6:55 PM 48.7 °F - 47.3 °F 95% 29.82 in 10.0 mi NE 9.2 mph - 0.01 in   Overcast
7:15 PM 48.4 °F - 47.1 °F 95% 29.82 in 10.0 mi NNE 9.2 mph - N/A   Overcast
7:35 PM 48.4 °F - 47.1 °F 95% 29.82 in 10.0 mi North 9.2 mph - N/A   Drizzle
7:55 PM 48.2 °F - 46.9 °F 95% 29.81 in 10.0 mi North 9.2 mph - N/A   Light Drizzle
8:15 PM 48.0 °F - 46.4 °F 94% 29.81 in 10.0 mi NNE 6.9 mph - N/A   Overcast
8:35 PM 47.7 °F - 46.4 °F 95% 29.78 in 10.0 mi ENE 15.0 mph - N/A   Overcast
8:55 PM 47.7 °F - 46.4 °F 95% 29.79 in 10.0 mi NE 5.8 mph - N/A   Overcast
9:15 PM 47.5 °F - 45.7 °F 93% 29.79 in 10.0 mi NNE 9.2 mph - N/A   Light Drizzle
9:35 PM 47.5 °F - 45.5 °F 93% 29.82 in 10.0 mi North 3.5 mph - N/A   Scattered Clouds
9:55 PM 47.3 °F - 45.5 °F 93% 29.85 in 10.0 mi WNW 4.6 mph - N/A   Mostly Cloudy
10:15 PM 47.7 °F - 45.9 °F 93% 29.86 in 10.0 mi NW 5.8 mph - N/A   Overcast
10:35 PM 48.0 °F - 46.4 °F 94% 29.86 in 10.0 mi WNW 4.6 mph - N/A   Overcast
10:55 PM 48.0 °F - 46.4 °F 94% 29.86 in 10.0 mi WNW 5.8 mph - N/A   Overcast
11:15 PM 48.2 °F - 46.4 °F 93% 29.87 in 10.0 mi WNW 5.8 mph - N/A   Overcast
11:35 PM 48.2 °F - 46.4 °F 93% 29.87 in 10.0 mi WNW 4.6 mph - N/A   Overcast
11:55 PM 48.4 °F - 46.4 °F 93% 29.87 in 10.0 mi WSW 3.5 mph - N/A   Overcast